[[{"header":{"parameterUnit":"m.s-1","parameterCategory":2,"la1":30.2991,"la2":30.254,"lo1":-89.0895,"lo2":-89.0444,"dy":0.0017,"dx":0.0017,"nx":28,"ny":28,"refTime":"2024-05-28T03:00:00:Z","depth":"0","parameterNumber":2,"parameterNumberName":"U-component_of_CURRENTS"},"data":[0,0,0,0,0,0,0,0,0,0,0,0,0,0,0,0,0,0,0,0,0,0,0,0,0,0,0,0,0,0,0,0,0,0,0,0,0,0,0,0,0,0,0,0,0,0,0,0,0,0,0,0,0,0,0,0,0,0,0.1516,0.1517,0,0.1585,0.1586,0.1586,0.1586,0.1585,0.1585,0.1584,0.1571,0.1571,0.1571,0,0,0,0,0,0,0,0,0,0,0,0,0,0.1382,0.1384,0.1516,0.1517,0.1519,0.1585,0.1586,0.1586,0.1586,0.1585,0.1585,0.1584,0.1571,0.1571,0.1571,0,0,0,0,0,0,0,0,0,0,0,0,0,0.144,0.1384,0.1516,0.153,0.1532,0.1585,0.1586,0.1586,0.1586,0.1585,0.1584,0.1584,0.1571,0.1571,0.1571,0.1586,0,0,0.1571,0.1571,0,0,0,0,0,0,0,0,0.1437,0.1444,0.1526,0.1529,0.1532,0.158,0.1534,0.1584,0.1586,0.1561,0.1584,0.1583,0.157,0.157,0.1579,0.1586,0.1585,0.1571,0.1571,0.1571,0.1572,0,0,0,0,0,0,0,0.1432,0.1441,0.1539,0.1528,0.1531,0.1532,0.1539,0.1543,0.1563,0.1563,0.1564,0.1579,0.157,0.1579,0.1579,0.1585,0.1571,0.1571,0.1572,0.1572,0.1563,0.1563,0,0,0,0,0,0,0.1435,0.1438,0.1537,0.1541,0.1487,0.1536,0.1543,0.1562,0.1565,0.1567,0.158,0.1579,0.1579,0.1579,0.1578,0.1594,0.1571,0.1572,0.1572,0.1564,0.1563,0.1563,0,0,0,0,0,0,0.1432,0.1443,0.1534,0.1494,0.1506,0.1539,0.156,0.1563,0.158,0.158,0.1579,0.1593,0.1579,0.1578,0.1581,0.1594,0.1572,0.1572,0.1564,0.1563,0.1563,0.1628,0,0,0,0,0,0,0.1427,0.1441,0.1455,0.1495,0.1509,0.1575,0.1561,0.1565,0.1592,0.1592,0.1591,0.1589,0.1578,0.1581,0.1581,0.1593,0.1572,0.1564,0.1564,0.1563,0.1626,0.163,0.1633,0,0,0,0,0,0.1422,0.1446,0.1455,0.1467,0.1527,0.1577,0.1584,0.1601,0.1594,0.161,0.1599,0.1589,0.1576,0.1581,0.1582,0.1594,0.1565,0.1564,0.1563,0.1625,0.1629,0.1633,0,0,0,0,0,0,0.1386,0.145,0.146,0.1499,0.154,0.1579,0.1601,0.1609,0.1616,0.1612,0.1597,0.1595,0.1597,0.1584,0.1589,0.1585,0.1564,0.1564,0.1611,0.1615,0.1618,0.1628,0.1572,0,0,0,0,0,0.1389,0.1428,0.1479,0.1511,0.1536,0.1569,0.1591,0.1605,0.162,0.1624,0.162,0.1606,0.1595,0.1596,0.1585,0.1596,0.1631,0.1597,0.16,0.1604,0.1608,0.1626,0.1632,0.1561,0.1561,0.1561,0,0,0.1382,0.1424,0.1444,0.1507,0.154,0.158,0.1579,0.1623,0.1643,0.162,0.1637,0.1622,0.1598,0.1603,0.1603,0.1596,0.1663,0.1603,0.1606,0.1609,0.1626,0.1633,0.164,0.156,0.156,0.156,0,0,0.1404,0.1431,0.1478,0.1514,0.1576,0.1595,0.161,0.1654,0.1661,0.1679,0.1658,0.1654,0.1644,0.1636,0.1626,0.1641,0.1676,0.1629,0.1664,0.1682,0.1689,0.1695,0.1849,0.1868,0.1635,0.1636,0.1636,0,0.1389,0.1458,0.1496,0.1549,0.1577,0.1603,0.1646,0.1662,0.1694,0.1696,0.1687,0.1669,0.1659,0.1659,0.1664,0.1653,0.1708,0.1658,0.169,0.1696,0.1701,0.1856,0.1877,0.1639,0.1638,0.1638,0.1638,0,0.1456,0.1501,0.1532,0.1603,0.1633,0.1677,0.1707,0.1725,0.1727,0.1733,0.1735,0.1722,0.171,0.1705,0.1694,0.1718,0.1769,0.1694,0.169,0.1713,0.1876,0.1896,0.1643,0.1642,0.1641,0.164,0,0,0.1446,0.1556,0.1566,0.1597,0.1664,0.169,0.1724,0.1757,0.1759,0.1777,0.1786,0.1777,0.1768,0.1756,0.1743,0.1762,0.1886,0.1751,0.1751,0.1927,0.2035,0.2213,0.2254,0.1808,0.181,0.181,0.2174,0,0.1485,0.1581,0.1625,0.1684,0.1729,0.175,0.1766,0.1787,0.1792,0.1803,0.1801,0.1799,0.1787,0.1784,0.1805,0.1845,0.1923,0.1802,0.1967,0.1975,0.2144,0.2274,0.2266,0.2597,0.2193,0.2196,0.2199,0,0.1545,0.1597,0.1671,0.1717,0.1735,0.1756,0.1773,0.1794,0.1811,0.1812,0.1824,0.1824,0.1888,0.1838,0.1985,0.1909,0.199,0.203,0.2043,0.219,0.2186,0.2484,0.2649,0.2515,0.223,0.2227,0.2225,0,0.1532,0.1623,0.1674,0.1697,0.1753,0.1763,0.1777,0.1791,0.1805,0.1825,0.1849,0.1891,0.1951,0.2007,0.2156,0.206,0.2344,0.2212,0.2476,0.2495,0.2512,0.253,0.2574,0.2318,0.2317,0.2316,0.2315,0,0.1563,0.1599,0.1665,0.1691,0.1703,0.1748,0.175,0.1763,0.1798,0.1834,0.1855,0.1935,0.1983,0.2153,0.2224,0.25,0.2425,0.2551,0.2594,0.2549,0.2564,0.2463,0.2357,0.233,0.2327,0.2324,0.2322,0,0.1546,0.1606,0.1649,0.1699,0.1703,0.1707,0.1738,0.1745,0.179,0.1851,0.1876,0.202,0.2272,0.2409,0.2585,0.2655,0.2784,0.2939,0.2976,0.3016,0.308,0.298,0.3014,0.2921,0.3274,0.3281,0.3286,0,0.1553,0.1578,0.1626,0.1633,0.1652,0.1664,0.167,0.1718,0.1752,0.193,0.1981,0.2254,0.2486,0.291,0.3072,0.3345,0.3091,0.3458,0.3235,0.3159,0.3074,0.2848,0.2743,0.3333,0.3339,0.3343,0.3347,0,0.1527,0.1542,0.1562,0.1593,0.1606,0.1628,0.1663,0.1716,0.1816,0.1946,0.2225,0.2449,0.2877,0.3189,0.3535,0.3647,0.3283,0.3561,0.3404,0.3101,0.2927,0.2833,0.3107,0.3386,0.3382,0.3379,0.3377,0.3375,0.148,0.1483,0.152,0.1565,0.1576,0.1652,0.1718,0.1809,0.1972,0.2223,0.24,0.2749,0.3122,0.3637,0.373,0.3827,0.3646,0.3704,0.3605,0.3395,0.3226,0.3692,0.4037,0.4037,0.4037,0.4036,0.4036,0,0.1468,0.1494,0.1501,0.1586,0.165,0.1663,0.1761,0.1867,0.2131,0.234,0.2631,0.3076,0.3419,0.3634,0.3889,0.3833,0.3573,0.3713,0.3291,0.319,0.3571,0.3489,0.3821,0.3821,0.3821,0.3821,0.3821,0.3822,0.1462,0.1497,0.1542,0.168,0.1749,0.1853,0.1954,0.2101,0.2246,0.2588,0.283,0.3045,0.3339,0.3629,0.3674,0.3628,0.3261,0.3249,0.3093,0.3262,0.3245,0.323,0.3123,0.3374,0.3373,0.2594,0.2588,0.2584]},{"header":{"parameterUnit":"m.s-1","parameterCategory":2,"la1":30.2991,"la2":30.254,"lo1":-89.0895,"lo2":-89.0444,"dy":0.0017,"dx":0.0017,"nx":28,"ny":28,"refTime":"2024-05-28T03:00:00:Z","depth":"0","parameterNumber":3,"parameterNumberName":"V-component_of_CURRENTS"},"data":[0,0,0,0,0,0,0,0,0,0,0,0,0,0,0,0,0,0,0,0,0,0,0,0,0,0,0,0,0,0,0,0,0,0,0,0,0,0,0,0,0,0,0,0,0,0,0,0,0,0,0,0,0,0,0,0,0,0,-0.04,-0.04,0,-0.0468,-0.0469,-0.047,-0.0433,-0.0432,-0.043,-0.0428,-0.0477,-0.048,-0.0482,0,0,0,0,0,0,0,0,0,0,0,0,0,-0.0298,-0.0299,-0.0399,-0.04,-0.0401,-0.0468,-0.0469,-0.047,-0.0434,-0.0431,-0.0429,-0.0427,-0.0476,-0.0479,-0.0483,0,0,0,0,0,0,0,0,0,0,0,0,0,-0.0351,-0.03,-0.0399,-0.0392,-0.0392,-0.0468,-0.0469,-0.047,-0.0434,-0.0431,-0.0429,-0.0426,-0.0475,-0.0479,-0.0483,-0.0565,0,0,-0.0497,-0.0499,0,0,0,0,0,0,0,0,-0.0348,-0.0355,-0.0392,-0.0392,-0.0393,-0.044,-0.0451,-0.0501,-0.0435,-0.0417,-0.0428,-0.0425,-0.0465,-0.047,-0.0488,-0.0567,-0.0569,-0.0497,-0.05,-0.0502,-0.0503,0,0,0,0,0,0,0,-0.0344,-0.0352,-0.0426,-0.0393,-0.0394,-0.0406,-0.041,-0.0461,-0.0455,-0.0419,-0.0416,-0.0426,-0.0464,-0.0484,-0.0489,-0.057,-0.0497,-0.0501,-0.0504,-0.0506,-0.0754,-0.0757,0,0,0,0,0,0,-0.0337,-0.0349,-0.0424,-0.0428,-0.0364,-0.041,-0.0414,-0.0427,-0.0454,-0.0456,-0.0428,-0.0424,-0.0478,-0.0484,-0.0491,-0.0581,-0.0502,-0.0506,-0.0509,-0.075,-0.0754,-0.0759,0,0,0,0,0,0,-0.0335,-0.0344,-0.0421,-0.039,-0.0401,-0.0414,-0.0429,-0.043,-0.0449,-0.0462,-0.0463,-0.0445,-0.0476,-0.0484,-0.0561,-0.0582,-0.0508,-0.0512,-0.0745,-0.0751,-0.0757,-0.0766,0,0,0,0,0,0,-0.0332,-0.0343,-0.0358,-0.039,-0.0402,-0.0483,-0.0432,-0.0433,-0.0459,-0.0454,-0.0478,-0.0479,-0.0475,-0.0555,-0.0566,-0.0587,-0.0516,-0.074,-0.0748,-0.0755,-0.0761,-0.0772,-0.0781,0,0,0,0,0,-0.0328,-0.0367,-0.0358,-0.0368,-0.042,-0.0485,-0.0494,-0.0493,-0.0463,-0.0495,-0.0514,-0.0478,-0.0608,-0.0563,-0.0574,-0.0596,-0.0737,-0.0746,-0.0754,-0.0756,-0.077,-0.0781,0,0,0,0,0,0,-0.0335,-0.0368,-0.0359,-0.0405,-0.0446,-0.0479,-0.0514,-0.0507,-0.0549,-0.0543,-0.0535,-0.0542,-0.0616,-0.0631,-0.058,-0.0699,-0.0666,-0.0677,-0.0664,-0.0676,-0.0686,-0.0613,-0.0519,0,0,0,0,0,-0.0344,-0.0379,-0.0411,-0.0453,-0.0475,-0.0495,-0.0521,-0.0524,-0.056,-0.0573,-0.0591,-0.0624,-0.0668,-0.0688,-0.0738,-0.0809,-0.0768,-0.0836,-0.0846,-0.0854,-0.081,-0.081,-0.0812,-0.0788,-0.0788,-0.0787,0,0,-0.0358,-0.0383,-0.0402,-0.0457,-0.0487,-0.053,-0.0505,-0.056,-0.0583,-0.0578,-0.0632,-0.0668,-0.0702,-0.0773,-0.0807,-0.078,-0.0845,-0.0865,-0.087,-0.0821,-0.0818,-0.082,-0.0821,-0.0794,-0.0793,-0.0792,0,0,-0.0412,-0.043,-0.0475,-0.0512,-0.0564,-0.0577,-0.0594,-0.064,-0.0647,-0.072,-0.0713,-0.0756,-0.0844,-0.0848,-0.0864,-0.0969,-0.0906,-0.1006,-0.0979,-0.0981,-0.098,-0.0979,-0.0924,-0.0918,-0.0999,-0.0999,-0.0999,0,-0.0422,-0.0473,-0.0503,-0.0556,-0.0574,-0.0596,-0.0634,-0.0668,-0.073,-0.0726,-0.0745,-0.0828,-0.0865,-0.0893,-0.0928,-0.098,-0.0953,-0.0917,-0.0984,-0.0982,-0.098,-0.0925,-0.0917,-0.1001,-0.1001,-0.1,-0.1,0,-0.0505,-0.0541,-0.0579,-0.0631,-0.0664,-0.0713,-0.0742,-0.0773,-0.0782,-0.0792,-0.0838,-0.0894,-0.0915,-0.0961,-0.0972,-0.0987,-0.0962,-0.0997,-0.0927,-0.0982,-0.0922,-0.0914,-0.1003,-0.1002,-0.1002,-0.1002,0,0,-0.0518,-0.0611,-0.062,-0.0628,-0.0695,-0.072,-0.0765,-0.0785,-0.077,-0.0844,-0.0821,-0.0916,-0.0908,-0.0927,-0.0952,-0.0954,-0.0936,-0.0963,-0.0963,-0.0859,-0.0891,-0.0804,-0.0786,-0.0981,-0.098,-0.0979,-0.0849,0,-0.0558,-0.0638,-0.0677,-0.0724,-0.0748,-0.0765,-0.079,-0.0808,-0.082,-0.0819,-0.0844,-0.0859,-0.0908,-0.0905,-0.0923,-0.0923,-0.0917,-0.0964,-0.0895,-0.0891,-0.0767,-0.0775,-0.0725,-0.0599,-0.0841,-0.0839,-0.0838,0,-0.0603,-0.0641,-0.0694,-0.0714,-0.0725,-0.0751,-0.0731,-0.0765,-0.0767,-0.0772,-0.0775,-0.0787,-0.0778,-0.0836,-0.082,-0.0845,-0.0863,-0.0871,-0.0867,-0.0761,-0.0788,-0.0592,-0.0574,-0.0803,-0.0825,-0.0826,-0.0827,0,-0.0552,-0.0633,-0.0655,-0.0674,-0.0722,-0.0715,-0.0729,-0.0735,-0.072,-0.0717,-0.0667,-0.0701,-0.065,-0.0708,-0.0699,-0.0767,-0.0658,-0.0764,-0.0695,-0.0688,-0.0612,-0.0598,-0.0755,-0.0763,-0.0764,-0.0764,-0.0765,0,-0.0552,-0.0561,-0.0627,-0.0636,-0.0635,-0.0672,-0.0652,-0.0665,-0.0644,-0.0564,-0.0621,-0.0509,-0.0614,-0.0558,-0.0636,-0.0579,-0.0604,-0.0648,-0.0645,-0.0618,-0.0608,-0.0776,-0.0894,-0.0759,-0.076,-0.0761,-0.0762,0,-0.0485,-0.0544,-0.0557,-0.0602,-0.0613,-0.0602,-0.0603,-0.0564,-0.055,-0.0433,-0.0408,-0.0332,-0.0231,-0.0307,-0.033,-0.0425,-0.051,-0.0429,-0.035,-0.034,-0.054,-0.0658,-0.0665,-0.0738,-0.0358,-0.0355,-0.0352,0,-0.0454,-0.0462,-0.0516,-0.0518,-0.0536,-0.0535,-0.0513,-0.0523,-0.0441,-0.027,-0.0158,-0.0031,0.016,0.0176,0.0004,-0.0085,-0.032,-0.0148,-0.0298,-0.0502,-0.0635,-0.0716,-0.0787,-0.0204,-0.02,-0.0197,-0.0195,0,-0.0375,-0.0402,-0.0424,-0.0422,-0.0408,-0.0384,-0.0328,-0.0237,-0.0159,0.0024,0.0347,0.0521,0.0537,0.0528,0.0345,0.023,-0.028,-0.0091,-0.0347,-0.0537,-0.0588,-0.0672,-0.0315,-0.0169,-0.0172,-0.0174,-0.0175,-0.0176,-0.0299,-0.0295,-0.0315,-0.0296,-0.0275,-0.0151,-0.0014,0.0124,0.0368,0.0752,0.0797,0.1163,0.0926,0.0727,0.0485,-0.0012,-0.0049,-0.0204,-0.0325,-0.0384,-0.0482,-0.0023,0.0138,0.0138,0.0137,0.0136,0.0136,0,-0.0166,-0.0177,-0.0171,-0.01,0.0024,-0.0012,0.0189,0.0418,0.0851,0.1132,0.1478,0.1607,0.1313,0.0854,0.0189,-0.0205,-0.0397,-0.0443,-0.0625,-0.0688,-0.0315,-0.0345,-0.0226,-0.0226,-0.0225,-0.0225,-0.0225,-0.0225,-0.0094,-0.004,-0.0034,0.0199,0.0279,0.0549,0.0731,0.1055,0.1315,0.1836,0.2093,0.2223,0.1812,0.0544,-0.038,-0.0592,-0.0938,-0.092,-0.1119,-0.0983,-0.0974,-0.0967,-0.103,-0.1056,-0.1057,-0.1453,-0.1458,-0.1461]}],[{"header":{"parameterUnit":"m.s-1","parameterCategory":2,"la1":30.2991,"la2":30.254,"lo1":-89.0895,"lo2":-89.0444,"dy":0.0017,"dx":0.0017,"nx":28,"ny":28,"refTime":"2024-05-28T03:00:00:Z","depth":"2","parameterNumber":2,"parameterNumberName":"U-component_of_CURRENTS"},"data":[0,0,0,0,0,0,0,0,0,0,0,0,0,0,0,0,0,0,0,0,0,0,0,0,0,0,0,0,0,0,0,0,0,0,0,0,0,0,0,0,0,0,0,0,0,0,0,0,0,0,0,0,0,0,0,0,0,0,0.1264,0.1264,0,0.1204,0.1203,0.1201,0.1204,0.1205,0.1207,0.1208,0.116,0.1157,0.1155,0,0,0,0,0,0,0,0,0,0,0,0,0,0.1221,0.1223,0.1264,0.1264,0.1264,0.1204,0.1203,0.1201,0.1204,0.1206,0.1207,0.1209,0.1161,0.1158,0.1155,0,0,0,0,0,0,0,0,0,0,0,0,0,0.1203,0.1223,0.1264,0.1262,0.1262,0.1204,0.1202,0.1201,0.1203,0.1206,0.1208,0.121,0.1162,0.1158,0.1154,0.1089,0,0,0.1142,0.1141,0,0,0,0,0,0,0,0,0.1204,0.1204,0.1263,0.1262,0.1262,0.1219,0.117,0.1166,0.1203,0.1219,0.1208,0.1211,0.1183,0.1177,0.1153,0.1087,0.1085,0.1142,0.114,0.1138,0.1137,0,0,0,0,0,0,0,0.1206,0.1206,0.1234,0.1262,0.1262,0.121,0.121,0.1168,0.1186,0.1218,0.122,0.1221,0.1182,0.1157,0.1152,0.1084,0.1142,0.1139,0.1136,0.1135,0.106,0.1061,0,0,0,0,0,0,0.1231,0.1208,0.1236,0.1233,0.1244,0.121,0.121,0.1226,0.1186,0.1184,0.122,0.1222,0.1162,0.1157,0.115,0.1163,0.1138,0.1134,0.1132,0.106,0.106,0.1061,0,0,0,0,0,0,0.1231,0.1235,0.1239,0.1223,0.122,0.121,0.1226,0.1223,0.123,0.1188,0.1186,0.1234,0.1164,0.1156,0.1151,0.1158,0.1133,0.1129,0.1059,0.106,0.106,0.1128,0,0,0,0,0,0,0.123,0.1235,0.1248,0.1225,0.1223,0.1217,0.1225,0.1221,0.1229,0.1232,0.1199,0.1195,0.1165,0.1157,0.1148,0.1152,0.1126,0.1059,0.106,0.106,0.1126,0.1131,0.1136,0,0,0,0,0,0.1229,0.1224,0.125,0.1253,0.1244,0.1218,0.121,0.1204,0.1228,0.122,0.1221,0.1197,0.1154,0.1155,0.1143,0.1146,0.1059,0.106,0.106,0.1123,0.113,0.1135,0,0,0,0,0,0,0.12,0.1224,0.1251,0.1255,0.1252,0.1221,0.1207,0.1219,0.1209,0.1221,0.1199,0.1193,0.1186,0.1158,0.1159,0.1127,0.1102,0.1101,0.1154,0.116,0.1165,0.1153,0.1123,0,0,0,0,0,0.1208,0.1226,0.1232,0.124,0.1239,0.1234,0.1225,0.1229,0.122,0.1218,0.1206,0.119,0.1169,0.1165,0.113,0.1113,0.1148,0.1108,0.1113,0.1118,0.1101,0.114,0.1148,0.1063,0.1063,0.1063,0,0,0.1204,0.1217,0.123,0.1237,0.1232,0.1239,0.1232,0.1224,0.1237,0.1212,0.1222,0.1201,0.1168,0.1152,0.1146,0.1138,0.1183,0.1119,0.1123,0.1103,0.1142,0.1151,0.1158,0.1064,0.1064,0.1063,0,0,0.12,0.1216,0.1233,0.1239,0.1246,0.1236,0.1249,0.124,0.124,0.1242,0.1236,0.123,0.1194,0.1177,0.1164,0.1174,0.1203,0.1165,0.1185,0.1225,0.1233,0.124,0.1401,0.1421,0.1174,0.1174,0.1174,0,0.1196,0.1228,0.1227,0.1247,0.125,0.1252,0.1263,0.1258,0.1255,0.1243,0.1257,0.1218,0.1202,0.1187,0.1197,0.1184,0.1252,0.117,0.1235,0.1241,0.1247,0.1409,0.143,0.1177,0.1177,0.1177,0.1176,0,0.1217,0.1243,0.1243,0.1285,0.128,0.128,0.1285,0.1283,0.129,0.1281,0.1265,0.1248,0.1225,0.1226,0.1215,0.1236,0.1295,0.1237,0.1225,0.126,0.143,0.1451,0.1182,0.1181,0.118,0.1179,0,0,0.1206,0.1252,0.1257,0.1272,0.1299,0.1282,0.1303,0.129,0.1288,0.129,0.1291,0.1267,0.1254,0.1238,0.1231,0.1266,0.141,0.1275,0.1276,0.1449,0.1604,0.1636,0.1664,0.1365,0.1367,0.1368,0.1747,0,0.1225,0.1257,0.1278,0.1299,0.1307,0.131,0.1312,0.1304,0.1299,0.1298,0.1286,0.1286,0.1263,0.1271,0.1296,0.1373,0.145,0.1318,0.153,0.1539,0.157,0.1681,0.1449,0.1761,0.1768,0.1771,0.1774,0,0.1249,0.1259,0.1283,0.1285,0.1285,0.1292,0.127,0.1274,0.1273,0.1277,0.1279,0.1288,0.1359,0.1318,0.1493,0.1418,0.1509,0.1573,0.1588,0.1589,0.1604,0.1703,0.18,0.1809,0.1807,0.1804,0.1802,0,0.1225,0.1258,0.1265,0.1276,0.1283,0.1271,0.1262,0.1253,0.1265,0.1281,0.1336,0.1359,0.1462,0.1516,0.1686,0.1598,0.191,0.1804,0.1933,0.1944,0.1767,0.1757,0.1906,0.1905,0.1905,0.1903,0.1902,0,0.1236,0.1235,0.1248,0.125,0.1213,0.1235,0.1205,0.1202,0.125,0.1305,0.1328,0.1436,0.1514,0.1699,0.1758,0.198,0.1992,0.1976,0.2025,0.1798,0.1786,0.1794,0.1776,0.1918,0.1915,0.1912,0.1909,0,0.121,0.1238,0.1219,0.1214,0.1204,0.1167,0.1184,0.1196,0.1257,0.1359,0.1402,0.1583,0.1847,0.1974,0.217,0.2153,0.2293,0.2355,0.2159,0.2172,0.229,0.2271,0.2525,0.2528,0.2532,0.2534,0.2537,0,0.1204,0.1198,0.1168,0.1158,0.1152,0.1122,0.1126,0.1169,0.1237,0.1469,0.1561,0.1856,0.2056,0.2403,0.2413,0.2577,0.2549,0.2446,0.2166,0.2323,0.2346,0.2321,0.2298,0.2032,0.203,0.2029,0.2027,0,0.1166,0.1149,0.1126,0.1122,0.1118,0.112,0.1161,0.1223,0.1355,0.1508,0.1805,0.199,0.2293,0.2359,0.2544,0.2556,0.2375,0.2418,0.2647,0.1884,0.188,0.1894,0.1884,0.2012,0.2014,0.2015,0.2016,0.2016,0.1129,0.1096,0.1103,0.1098,0.1107,0.1191,0.1211,0.1336,0.1493,0.1704,0.189,0.2083,0.2144,0.2302,0.2329,0.2319,0.2431,0.2268,0.2264,0.2263,0.211,0.2107,0.2265,0.2268,0.227,0.2273,0.2274,0,0.1134,0.1141,0.1113,0.1144,0.1181,0.121,0.1306,0.1343,0.1561,0.1687,0.1885,0.1809,0.1917,0.2017,0.1961,0.1983,0.1849,0.1927,0.1701,0.172,0.1736,0.1543,0.1555,0.1553,0.1551,0.1549,0,0,0.1158,0.1154,0.1151,0.1238,0.1286,0.1353,0.1421,0.1475,0.1529,0.1577,0.162,0.1746,0.1903,0.1657,0.1662,0.1612,0.1631,0.1552,0.2128,0.1876,0.1888,0.1943,0.1673,0,0,0,0,0]},{"header":{"parameterUnit":"m.s-1","parameterCategory":2,"la1":30.2991,"la2":30.254,"lo1":-89.0895,"lo2":-89.0444,"dy":0.0017,"dx":0.0017,"nx":28,"ny":28,"refTime":"2024-05-28T03:00:00:Z","depth":"2","parameterNumber":3,"parameterNumberName":"V-component_of_CURRENTS"},"data":[0,0,0,0,0,0,0,0,0,0,0,0,0,0,0,0,0,0,0,0,0,0,0,0,0,0,0,0,0,0,0,0,0,0,0,0,0,0,0,0,0,0,0,0,0,0,0,0,0,0,0,0,0,0,0,0,0,0,-0.0494,-0.0494,0,-0.0545,-0.0545,-0.0545,-0.0524,-0.0523,-0.0521,-0.052,-0.0567,-0.057,-0.0572,0,0,0,0,0,0,0,0,0,0,0,0,0,-0.0398,-0.04,-0.0494,-0.0494,-0.0495,-0.0544,-0.0545,-0.0546,-0.0524,-0.0522,-0.0521,-0.052,-0.0567,-0.0569,-0.0572,0,0,0,0,0,0,0,0,0,0,0,0,0,-0.0442,-0.04,-0.0493,-0.0491,-0.0492,-0.0544,-0.0545,-0.0546,-0.0524,-0.0522,-0.0521,-0.0519,-0.0566,-0.0569,-0.0572,-0.0626,0,0,-0.0583,-0.0584,0,0,0,0,0,0,0,0,-0.0439,-0.0445,-0.0491,-0.0492,-0.0492,-0.0527,-0.0529,-0.0573,-0.0525,-0.051,-0.052,-0.0519,-0.0556,-0.056,-0.0571,-0.0628,-0.063,-0.0583,-0.0585,-0.0587,-0.0588,0,0,0,0,0,0,0,-0.0436,-0.0443,-0.0512,-0.0492,-0.0493,-0.0495,-0.0499,-0.0537,-0.054,-0.0511,-0.051,-0.0519,-0.0556,-0.0568,-0.0572,-0.0631,-0.0583,-0.0586,-0.0588,-0.059,-0.0756,-0.0758,0,0,0,0,0,0,-0.0434,-0.044,-0.051,-0.0514,-0.0463,-0.0498,-0.0503,-0.0517,-0.054,-0.0542,-0.052,-0.0518,-0.0563,-0.0568,-0.0574,-0.0653,-0.0587,-0.059,-0.0592,-0.0754,-0.0757,-0.0759,0,0,0,0,0,0,-0.0432,-0.044,-0.0508,-0.0479,-0.0488,-0.0502,-0.0517,-0.0518,-0.0538,-0.0547,-0.0549,-0.054,-0.0562,-0.0569,-0.0624,-0.0654,-0.0591,-0.0594,-0.0751,-0.0755,-0.0758,-0.0804,0,0,0,0,0,0,-0.0429,-0.0439,-0.0453,-0.0479,-0.0489,-0.0537,-0.0519,-0.0521,-0.0546,-0.0544,-0.0565,-0.0567,-0.0561,-0.0619,-0.0627,-0.0658,-0.0597,-0.0748,-0.0753,-0.0757,-0.0799,-0.0808,-0.0816,0,0,0,0,0,-0.0426,-0.0451,-0.0454,-0.0462,-0.0507,-0.0538,-0.0544,-0.0546,-0.0549,-0.0559,-0.0586,-0.0566,-0.0652,-0.0624,-0.0633,-0.0665,-0.0746,-0.0751,-0.0756,-0.0795,-0.0806,-0.0816,0,0,0,0,0,0,-0.0419,-0.0452,-0.0455,-0.049,-0.0511,-0.0535,-0.0553,-0.0562,-0.0593,-0.0599,-0.0603,-0.0608,-0.066,-0.0671,-0.0639,-0.0729,-0.0694,-0.0702,-0.0721,-0.0732,-0.074,-0.0697,-0.06,0,0,0,0,0,-0.0425,-0.0455,-0.0478,-0.051,-0.052,-0.0543,-0.056,-0.0566,-0.0596,-0.0607,-0.0631,-0.0662,-0.0692,-0.0716,-0.0739,-0.0804,-0.0772,-0.0831,-0.0839,-0.0846,-0.082,-0.0823,-0.0828,-0.0777,-0.0777,-0.0777,0,0,-0.0436,-0.0458,-0.0476,-0.0511,-0.0529,-0.0541,-0.0548,-0.0582,-0.0601,-0.0612,-0.0661,-0.0691,-0.0714,-0.0769,-0.0795,-0.0783,-0.0847,-0.0853,-0.0859,-0.0828,-0.0829,-0.0833,-0.0837,-0.078,-0.078,-0.0779,0,0,-0.0449,-0.0487,-0.0497,-0.0516,-0.0546,-0.0564,-0.0577,-0.0616,-0.0637,-0.0698,-0.0704,-0.0753,-0.0817,-0.083,-0.0846,-0.0924,-0.0885,-0.0947,-0.0965,-0.097,-0.0972,-0.0975,-0.094,-0.0939,-0.0961,-0.0961,-0.0961,0,-0.0452,-0.0471,-0.0507,-0.0512,-0.0531,-0.0572,-0.0579,-0.0615,-0.0672,-0.0697,-0.0716,-0.0805,-0.0836,-0.0878,-0.091,-0.0937,-0.0922,-0.0921,-0.0976,-0.0978,-0.0979,-0.0943,-0.0941,-0.0964,-0.0964,-0.0963,-0.0963,0,-0.045,-0.0473,-0.0488,-0.0506,-0.0532,-0.0559,-0.06,-0.0644,-0.0694,-0.0724,-0.0792,-0.0847,-0.0887,-0.0928,-0.0947,-0.0985,-0.0964,-0.0976,-0.0939,-0.0986,-0.0946,-0.0943,-0.0968,-0.0967,-0.0966,-0.0965,0,0,-0.0441,-0.0475,-0.0482,-0.0487,-0.0534,-0.0556,-0.0603,-0.0647,-0.0671,-0.0754,-0.0776,-0.0875,-0.0904,-0.0923,-0.0963,-0.099,-0.1006,-0.0998,-0.0997,-0.0941,-0.0989,-0.0996,-0.0992,-0.1034,-0.1034,-0.1034,-0.0955,0,-0.0424,-0.043,-0.0457,-0.0481,-0.0489,-0.0545,-0.0577,-0.063,-0.0689,-0.0726,-0.0797,-0.0832,-0.0902,-0.0925,-0.0969,-0.0975,-0.1001,-0.1024,-0.0969,-0.0965,-0.0949,-0.099,-0.0917,-0.0844,-0.0952,-0.0951,-0.0951,0,-0.0401,-0.0414,-0.0424,-0.0462,-0.0471,-0.05,-0.0561,-0.0595,-0.0656,-0.0694,-0.0751,-0.0785,-0.0829,-0.0885,-0.0922,-0.0934,-0.0968,-0.0985,-0.0983,-0.0962,-0.0967,-0.0817,-0.0833,-0.0944,-0.0945,-0.0945,-0.0946,0,-0.0366,-0.0393,-0.0406,-0.0421,-0.0466,-0.0498,-0.0535,-0.0597,-0.0607,-0.0666,-0.0645,-0.0727,-0.0713,-0.0792,-0.0833,-0.0881,-0.0842,-0.0907,-0.0941,-0.094,-0.0848,-0.084,-0.0939,-0.0939,-0.094,-0.094,-0.094,0,-0.0335,-0.035,-0.0399,-0.041,-0.0437,-0.048,-0.0509,-0.0556,-0.0571,-0.0528,-0.0621,-0.0568,-0.0689,-0.0681,-0.0779,-0.0818,-0.0796,-0.0928,-0.0927,-0.0866,-0.0861,-0.0927,-0.0926,-0.0937,-0.0938,-0.0938,-0.0939,0,-0.0299,-0.0324,-0.0349,-0.0403,-0.0423,-0.0453,-0.0481,-0.0474,-0.0494,-0.0427,-0.042,-0.0419,-0.0407,-0.0505,-0.0573,-0.0699,-0.0769,-0.0792,-0.0694,-0.0686,-0.0882,-0.0885,-0.0846,-0.0846,-0.0846,-0.0846,-0.0845,0,-0.0275,-0.0284,-0.0347,-0.0357,-0.0392,-0.0429,-0.0425,-0.0453,-0.0406,-0.0307,-0.0231,-0.0199,-0.0148,-0.0251,-0.0434,-0.0582,-0.0666,-0.0667,-0.0786,-0.0873,-0.0875,-0.0879,-0.0882,-0.0668,-0.0666,-0.0665,-0.0664,0,-0.024,-0.0277,-0.0302,-0.0315,-0.0329,-0.0312,-0.0297,-0.0232,-0.0187,-0.0083,0.0092,0.0139,0.0051,-0.0065,-0.0305,-0.0428,-0.0656,-0.0652,-0.0729,-0.0728,-0.0706,-0.0709,-0.0717,-0.0653,-0.0654,-0.0655,-0.0655,-0.0656,-0.0228,-0.0237,-0.0259,-0.0271,-0.0253,-0.0161,-0.0108,-0.0005,0.0137,0.0346,0.0367,0.0468,0.0241,-0.0018,-0.0231,-0.0492,-0.0545,-0.0678,-0.068,-0.0685,-0.0703,-0.0686,-0.0628,-0.0629,-0.063,-0.0631,-0.0631,0,-0.0201,-0.0197,-0.0198,-0.0178,-0.0108,-0.0112,0.002,0.0137,0.0371,0.0541,0.0701,0.058,0.0406,0.0129,-0.0232,-0.0496,-0.0517,-0.0584,-0.0557,-0.0566,-0.0575,-0.0589,-0.0483,-0.0483,-0.0483,-0.0484,0,0,-0.0178,-0.017,-0.0166,-0.0046,0.0002,0.0133,0.0233,0.0445,0.0587,0.0812,0.0877,0.0893,0.0508,0.0276,-0.0047,-0.0261,-0.0358,-0.0299,-0.039,-0.0327,-0.0332,-0.0598,-0.0626,0,0,0,0,0]}],[{"header":{"parameterUnit":"m.s-1","parameterCategory":2,"la1":30.2991,"la2":30.254,"lo1":-89.0895,"lo2":-89.0444,"dy":0.0017,"dx":0.0017,"nx":28,"ny":28,"refTime":"2024-05-28T03:00:00:Z","depth":"4","parameterNumber":2,"parameterNumberName":"U-component_of_CURRENTS"},"data":[0,0,0,0,0,0,0,0,0,0,0,0,0,0,0,0,0,0,0,0,0,0,0,0,0,0,0,0,0,0,0,0,0,0,0,0,0,0,0,0,0,0,0,0,0,0,0,0,0,0,0,0,0,0,0,0,0,0,0.042,0.042,0,0.0426,0.0426,0.0426,0.0442,0.0442,0.0442,0.0442,0.0474,0.0475,0.0475,0,0,0,0,0,0,0,0,0,0,0,0,0,0.041,0.041,0.042,0.042,0.042,0.0426,0.0426,0.0426,0.0441,0.0442,0.0442,0.0443,0.0474,0.0475,0.0475,0,0,0,0,0,0,0,0,0,0,0,0,0,0.0415,0.041,0.042,0.0428,0.0429,0.0425,0.0426,0.0426,0.0441,0.0442,0.0442,0.0443,0.0474,0.0475,0.0475,0.0472,0,0,0.0478,0.0478,0,0,0,0,0,0,0,0,0.0415,0.0416,0.0427,0.0428,0.0428,0.0433,0.0434,0.0442,0.0441,0.0437,0.0442,0.0443,0.0462,0.0464,0.0464,0.0473,0.0475,0.0478,0.0479,0.0479,0.0479,0,0,0,0,0,0,0,0.0415,0.0415,0.0423,0.0427,0.0428,0.0427,0.0428,0.0435,0.0448,0.0438,0.0439,0.0438,0.0463,0.0463,0.0465,0.0475,0.0478,0.0479,0.0479,0.048,0.0565,0.0567,0,0,0,0,0,0,0.0413,0.0415,0.0423,0.0423,0.0422,0.0427,0.0428,0.0431,0.0447,0.045,0.0438,0.0439,0.0462,0.0464,0.0466,0.0542,0.0479,0.048,0.048,0.0563,0.0565,0.0567,0,0,0,0,0,0,0.0413,0.0414,0.0422,0.0419,0.042,0.0427,0.043,0.0431,0.0447,0.0447,0.045,0.0454,0.0462,0.0465,0.0497,0.0541,0.048,0.0481,0.0561,0.0564,0.0566,0.0644,0,0,0,0,0,0,0.0413,0.0414,0.0422,0.0419,0.042,0.0437,0.0429,0.0431,0.0445,0.0447,0.0462,0.0464,0.0463,0.0496,0.0498,0.0541,0.0482,0.0559,0.0562,0.0565,0.0639,0.0648,0.0657,0,0,0,0,0,0.0412,0.042,0.0423,0.0424,0.0429,0.0437,0.0439,0.0445,0.0446,0.046,0.0475,0.0465,0.0519,0.0498,0.05,0.0544,0.0557,0.0561,0.0565,0.0635,0.0647,0.0657,0,0,0,0,0,0,0.0426,0.0422,0.0425,0.0434,0.0443,0.044,0.045,0.0453,0.0474,0.0481,0.0481,0.0485,0.0529,0.0524,0.0501,0.0579,0.0539,0.0543,0.0591,0.0602,0.0611,0.0663,0.0482,0,0,0,0,0,0.0431,0.0432,0.0436,0.0444,0.045,0.0453,0.0459,0.0465,0.0477,0.0487,0.0497,0.0516,0.0543,0.0563,0.0574,0.0615,0.0632,0.0646,0.0655,0.0663,0.0708,0.0766,0.0785,0.058,0.058,0.058,0,0,0.0436,0.0436,0.0437,0.0447,0.0452,0.0463,0.0459,0.0475,0.0491,0.0487,0.052,0.0541,0.0558,0.0606,0.0627,0.0612,0.0725,0.0668,0.0675,0.0716,0.0772,0.0792,0.081,0.0583,0.0582,0.0582,0,0,0.0438,0.0451,0.045,0.046,0.0473,0.0481,0.049,0.0501,0.0518,0.0556,0.0561,0.0619,0.0641,0.0679,0.0698,0.0765,0.0763,0.0762,0.0862,0.0917,0.0935,0.0951,0.0975,0.0992,0.0776,0.0776,0.0776,0,0.0449,0.0445,0.0454,0.0459,0.0473,0.0491,0.0503,0.0522,0.0546,0.0584,0.0579,0.0668,0.0686,0.0765,0.0813,0.0789,0.0813,0.0816,0.0931,0.0947,0.0962,0.0983,0.1002,0.078,0.078,0.0779,0.0779,0,0.044,0.045,0.0455,0.0468,0.0489,0.0505,0.0532,0.057,0.0603,0.0637,0.0724,0.0758,0.0831,0.084,0.0865,0.0984,0.0961,0.0926,0.0905,0.0988,0.1003,0.1022,0.0786,0.0785,0.0784,0.0783,0,0,0.0431,0.0445,0.0447,0.0464,0.0497,0.0517,0.0566,0.0629,0.0684,0.0737,0.0811,0.0911,0.0963,0.0992,0.1013,0.1089,0.122,0.1087,0.1087,0.1116,0.1338,0.1193,0.1198,0.1211,0.1215,0.1218,0.1297,0,0.0424,0.0432,0.0446,0.0479,0.0494,0.0546,0.0596,0.0666,0.073,0.0806,0.0886,0.0968,0.1002,0.1063,0.1148,0.1201,0.1277,0.1202,0.1252,0.1254,0.1119,0.1217,0.1231,0.131,0.1314,0.1317,0.1319,0,0.04,0.0417,0.0437,0.0502,0.0518,0.0553,0.0663,0.0711,0.0831,0.0889,0.1002,0.1057,0.1207,0.1196,0.1367,0.1323,0.1372,0.1397,0.1399,0.1262,0.1144,0.1216,0.1351,0.1349,0.1347,0.1344,0.1342,0,0.0374,0.0412,0.0433,0.0449,0.0525,0.0575,0.0636,0.0753,0.0816,0.0958,0.1031,0.1172,0.1257,0.1357,0.1445,0.1438,0.1578,0.1545,0.1448,0.1436,0.1506,0.1488,0.167,0.167,0.167,0.167,0.1669,0,0.0349,0.0368,0.043,0.0443,0.0511,0.0578,0.0673,0.0754,0.0873,0.0959,0.1088,0.1163,0.1319,0.1403,0.1469,0.1509,0.1598,0.1506,0.1467,0.1529,0.1514,0.1516,0.1497,0.1672,0.1672,0.1671,0.1671,0,0.0301,0.0332,0.0368,0.0457,0.0492,0.0548,0.0676,0.0744,0.0876,0.0983,0.1043,0.1202,0.1324,0.1408,0.1543,0.1524,0.157,0.1548,0.1602,0.1556,0.1391,0.1375,0.1491,0.1487,0.1483,0.1481,0.1478,0,0.027,0.028,0.0364,0.0398,0.0439,0.0532,0.0595,0.073,0.0794,0.0989,0.1023,0.1186,0.1278,0.1345,0.1438,0.1506,0.1492,0.1504,0.1495,0.1433,0.1384,0.1373,0.1363,0.1473,0.1472,0.1471,0.147,0,0.0222,0.0251,0.0283,0.0352,0.0415,0.0485,0.0583,0.062,0.0778,0.09,0.1013,0.1102,0.1198,0.1288,0.1326,0.1374,0.1499,0.1469,0.1477,0.147,0.1412,0.1364,0.1358,0.1458,0.146,0.1461,0.1462,0,0.0184,0.0194,0.024,0.0303,0.0371,0.0424,0.0485,0.0576,0.0662,0.0865,0.0889,0.1049,0.1174,0.1216,0.1254,0.1282,0.1296,0.1284,0.1302,0.1316,0.1222,0.112,0.1081,0,0,0,0,0,0.0147,0.0154,0.0196,0.0251,0.0315,0.0371,0.047,0.0533,0.0668,0.0723,0.0812,0.0901,0.1008,0.1078,0.108,0.1172,0.1281,0.1168,0.1269,0.1393,0.1407,0.1311,0,0,0,0,0,0,0.0116,0.0141,0.0167,0.02,0.0238,0.0307,0.0373,0.0465,0.0503,0.0649,0.0706,0.0839,0.0939,0.0995,0.106,0.1081,0.1126,0.1261,0.1259,0.1386,0.1398,0.1409,0.1315,0,0,0,0,0]},{"header":{"parameterUnit":"m.s-1","parameterCategory":2,"la1":30.2991,"la2":30.254,"lo1":-89.0895,"lo2":-89.0444,"dy":0.0017,"dx":0.0017,"nx":28,"ny":28,"refTime":"2024-05-28T03:00:00:Z","depth":"4","parameterNumber":3,"parameterNumberName":"V-component_of_CURRENTS"},"data":[0,0,0,0,0,0,0,0,0,0,0,0,0,0,0,0,0,0,0,0,0,0,0,0,0,0,0,0,0,0,0,0,0,0,0,0,0,0,0,0,0,0,0,0,0,0,0,0,0,0,0,0,0,0,0,0,0,0,0.0223,0.0224,0,0.0258,0.0258,0.0259,0.022,0.0218,0.0217,0.0216,0.0207,0.0208,0.0209,0,0,0,0,0,0,0,0,0,0,0,0,0,0.0139,0.0141,0.0223,0.0224,0.0224,0.0258,0.0259,0.0259,0.022,0.0218,0.0217,0.0215,0.0207,0.0208,0.021,0,0,0,0,0,0,0,0,0,0,0,0,0,0.0174,0.0141,0.0223,0.021,0.0209,0.0258,0.0259,0.0259,0.022,0.0218,0.0216,0.0214,0.0207,0.0208,0.021,0.0261,0,0,0.0215,0.0215,0,0,0,0,0,0,0,0,0.0172,0.0177,0.0211,0.0211,0.021,0.0233,0.0226,0.0258,0.0221,0.0215,0.0216,0.0213,0.0214,0.0215,0.0225,0.0261,0.0261,0.0215,0.0216,0.0216,0.0217,0,0,0,0,0,0,0,0.017,0.0176,0.0236,0.0212,0.0211,0.0207,0.021,0.0232,0.0224,0.0215,0.0213,0.0219,0.0213,0.0224,0.0225,0.0261,0.0215,0.0216,0.0217,0.0218,0.035,0.0352,0,0,0,0,0,0,0.0169,0.0174,0.0235,0.0237,0.0187,0.0211,0.0213,0.0227,0.0225,0.0223,0.0221,0.0217,0.0222,0.0223,0.0224,0.0294,0.0216,0.0218,0.0219,0.0347,0.0351,0.0353,0,0,0,0,0,0,0.0168,0.0175,0.0234,0.0206,0.0213,0.0214,0.023,0.0229,0.0239,0.023,0.0226,0.0232,0.0221,0.0222,0.0259,0.0293,0.0219,0.022,0.0344,0.0348,0.0352,0.0428,0,0,0,0,0,0,0.0165,0.0174,0.019,0.0207,0.0215,0.028,0.0232,0.0231,0.0247,0.0242,0.0239,0.0236,0.0219,0.0258,0.0261,0.0293,0.0221,0.0341,0.0346,0.0351,0.0422,0.0434,0.0444,0,0,0,0,0,0.0162,0.0209,0.0191,0.0199,0.0235,0.0282,0.0288,0.0279,0.025,0.0276,0.0269,0.0236,0.029,0.0262,0.0265,0.0298,0.0339,0.0345,0.035,0.0417,0.0431,0.0443,0,0,0,0,0,0,0.0191,0.0209,0.019,0.0241,0.0261,0.0276,0.0308,0.0291,0.0308,0.0301,0.0273,0.0273,0.0316,0.0308,0.0277,0.0353,0.0308,0.0315,0.0357,0.0371,0.0381,0.0354,0.0223,0,0,0,0,0,0.0202,0.0236,0.0247,0.0289,0.0302,0.0302,0.0319,0.0313,0.0326,0.033,0.0326,0.0329,0.0348,0.0357,0.0373,0.0422,0.0355,0.0446,0.0457,0.0466,0.0449,0.0371,0.0371,0.0372,0.0372,0.0372,0,0,0.0226,0.0241,0.026,0.0297,0.0311,0.035,0.0308,0.0349,0.0372,0.033,0.037,0.037,0.0371,0.0419,0.0438,0.0412,0.0439,0.0473,0.0481,0.0458,0.0376,0.0375,0.0375,0.0376,0.0375,0.0375,0,0,0.03,0.0304,0.0353,0.0374,0.0401,0.0402,0.0415,0.0434,0.0432,0.0481,0.0447,0.0458,0.0507,0.0493,0.0497,0.058,0.0499,0.0603,0.0632,0.0558,0.0555,0.0552,0.0486,0.0476,0.0606,0.0606,0.0606,0,0.0324,0.0374,0.0379,0.0428,0.0441,0.0427,0.0469,0.0487,0.0512,0.0506,0.0508,0.0531,0.0536,0.055,0.0586,0.0599,0.0545,0.058,0.0566,0.0562,0.0557,0.0489,0.0477,0.061,0.061,0.0609,0.0609,0,0.0424,0.0458,0.0497,0.0537,0.056,0.0601,0.0607,0.0624,0.0619,0.0617,0.0634,0.0635,0.0632,0.0654,0.0654,0.0638,0.0607,0.0585,0.052,0.056,0.0488,0.0475,0.0617,0.0615,0.0614,0.0613,0,0,0.0477,0.0547,0.0557,0.0567,0.0607,0.063,0.0673,0.0685,0.0687,0.0712,0.0699,0.0744,0.0711,0.0712,0.0697,0.0649,0.0593,0.0616,0.061,0.0527,0.0427,0.0404,0.0385,0.0561,0.0559,0.0557,0.0395,0,0.054,0.0627,0.0648,0.0709,0.0736,0.0727,0.0763,0.077,0.0769,0.0763,0.0735,0.0742,0.0744,0.0739,0.0693,0.0616,0.0557,0.0639,0.042,0.0413,0.0367,0.0369,0.0551,0.0384,0.0381,0.0378,0.0377,0,0.0612,0.065,0.072,0.0747,0.0759,0.0802,0.0798,0.0832,0.0821,0.0814,0.0791,0.0765,0.0719,0.0707,0.0565,0.0616,0.0529,0.0462,0.0453,0.0386,0.0363,0.0333,0.035,0.0352,0.0354,0.0356,0.0358,0,0.0606,0.0687,0.0729,0.0746,0.0795,0.0814,0.0839,0.0847,0.0857,0.0834,0.082,0.0759,0.0716,0.0605,0.05,0.052,0.0318,0.0318,0.0206,0.0203,0.0235,0.024,0.0187,0.0187,0.0187,0.0188,0.0188,0,0.0635,0.0667,0.0734,0.0754,0.0794,0.0828,0.0865,0.0871,0.0878,0.0871,0.0844,0.0797,0.0686,0.0572,0.0473,0.0298,0.0287,0.0193,0.0151,0.0279,0.029,0.0226,0.0232,0.0182,0.0183,0.0184,0.0185,0,0.0614,0.0668,0.0709,0.077,0.0795,0.0822,0.0888,0.0905,0.0916,0.0894,0.0884,0.0803,0.065,0.0528,0.0329,0.0255,0.0097,0.0034,0.0179,0.0151,0.0036,0.0049,-0.0121,-0.0124,-0.0126,-0.0127,-0.0129,0,0.061,0.0635,0.0708,0.0737,0.0771,0.0829,0.0868,0.0915,0.0922,0.0884,0.0851,0.0725,0.065,0.0356,0.0235,0.0018,-0.0002,-0.0077,-0.0015,0.0023,0.0,0.0017,0.0032,-0.0132,-0.0133,-0.0133,-0.0134,0,0.0577,0.061,0.064,0.0705,0.0757,0.0813,0.0867,0.0871,0.0898,0.0905,0.0797,0.0672,0.0489,0.0313,0.0148,0.0001,-0.0018,-0.0098,-0.0094,-0.0037,0.0008,-0.0009,0.0009,-0.0141,-0.014,-0.0139,-0.0139,0,0.0538,0.0552,0.0603,0.0648,0.072,0.0767,0.0813,0.0817,0.0833,0.08,0.0751,0.0598,0.0519,0.0298,0.0144,0.0002,-0.003,-0.0053,-0.0053,-0.0046,0.0042,0.0115,-0.0056,0,0,0,0,0,0.0489,0.0501,0.0544,0.0596,0.0669,0.0717,0.0789,0.083,0.085,0.0768,0.0767,0.0602,0.0372,0.028,0.0125,0.01,-0.0055,-0.0085,-0.0082,-0.0179,-0.0171,-0.008,0,0,0,0,0,0,0.0455,0.0488,0.0513,0.0543,0.0577,0.0658,0.0711,0.0737,0.0701,0.0703,0.0581,0.0552,0.0329,0.044,0.011,0.007,0.0052,-0.018,-0.0183,-0.0184,-0.0176,-0.017,-0.0074,0,0,0,0,0]}]]